This is the latest recevied weather packets stored in our database for station/object UR7D-12. If no packets are shown the sender has not sent any weather packets the latest 10 day(s).
| Time | Temp. | Humidity | Pressure | Rain* | Wind** | Luminosity | Snow |
|---|---|---|---|---|---|---|---|
| 1777737685 | 17.78° C | 38% | 994.2 hPa | 0 mm | - | - | - |
| 1777737385 | 17.78° C | 37% | 994.3 hPa | 0 mm | - | - | - |
| 1777737085 | 18.33° C | 37% | 994.3 hPa | 0 mm | - | - | - |
| 1777736784 | 18.33° C | 36% | 994.3 hPa | 0 mm | - | - | - |
| 1777736484 | 18.33° C | 36% | 994.3 hPa | 0 mm | - | - | - |
| 1777735883 | 18.33° C | 36% | 994.4 hPa | 0 mm | - | - | - |
| 1777734682 | 18.89° C | 35% | 994.3 hPa | 0 mm | - | - | - |
| 1777733481 | 18.89° C | 35% | 994.4 hPa | 0 mm | - | - | - |
| 1777732580 | 18.89° C | 37% | 994.6 hPa | 0 mm | - | - | - |
| 1777731680 | 18.89° C | 35% | 994.7 hPa | 0 mm | - | - | - |
| 1777731379 | 18.89° C | 36% | 994.7 hPa | 0 mm | - | - | - |
| 1777730479 | 18.89° C | 34% | 994.8 hPa | 0 mm | - | - | - |
| 1777730179 | 18.89° C | 35% | 994.9 hPa | 0 mm | - | - | - |
| 1777729878 | 18.89° C | 34% | 994.9 hPa | 0 mm | - | - | - |
| 1777729277 | 18.89° C | 36% | 995 hPa | 0 mm | - | - | - |
| 1777728678 | 18.89° C | 35% | 995 hPa | 0 mm | - | - | - |
| 1777726874 | 18.33° C | 36% | 995.2 hPa | 0 mm | - | - | - |
| 1777726575 | 18.89° C | 36% | 995.3 hPa | 0 mm | - | - | - |
| 1777726274 | 18.89° C | 35% | 995.3 hPa | 0 mm | - | - | - |
| 1777725674 | 18.89° C | 38% | 995.4 hPa | 0 mm | - | - | - |
| 1777725374 | 18.33° C | 37% | 995.2 hPa | 0 mm | - | - | - |
| 1777725073 | 17.78° C | 37% | 995.4 hPa | 0 mm | - | - | - |
| 1777724475 | 18.33° C | 38% | 995.5 hPa | 0 mm | - | - | - |
| 1777723872 | 17.78° C | 37% | 995.7 hPa | 0 mm | - | - | - |
| 1777723572 | 18.33° C | 37% | 995.8 hPa | 0 mm | - | - | - |
* Rain latest hour (hover to see other rain measurements)
** Current wind speed in m/s (hover to see current wind gust speed)